NUSAT-1 (FRESCO) (41557 NORAD) Tracking and Keplerian Element Data

This shows tracking and keplerian element data for the satellite.

Feedback or suggestion? Click here.




ElementValue
Catalog41557
NameNUSAT-1 (FRESCO)
Epoch Orbit16051
Epoch Day106.94416799
Epoch Year2019
RAAN194.8183
Inclination97.4176
Eccentricity0.0014695
Argument of Perigee153.8608
Mean Anonmoly206.3376
Mean Motion15.27043923
Decay Rate1.431E-05
L11 41557U 16033B 19106.94416799 .00001431 00000-0 56575-4 0 9992
L22 41557 97.4176 194.8183 0014695 153.8608 206.3376 15.27043923160514

Live tracking and technical data element details for NUSAT-1 (FRESCO) (NORAD 41557). NUSAT-1 (FRESCO) can be tracked NOW for your location showing map with azimuth and elevation plus other details from your city location.

Track the satellite on the map from your city or location and see movement details for azimuth, elevation, latitude, longitude, range, height, and movement on the map or in text.







IsCatalogInMostPopularTable: catalog: 41557, numindb: 207
Update: records affected: 1



GetName: 41557 NUSAT-1 (FRESCO)

Hit Count: updated at: Sat, 20 Apr 2019 00:50:43 GMT